Regional Weather Roundup
Issued by NWS

Home | Current Version | Previous Version | Text Only | Print | Product List | Glossary Off
Versions: 1 2 3 4 5 6 7 8 9 10 11 12 13 14 15 16 17 18 19 20 21 22 23 24 25 26 27 28 29 30 31 32 33 34 35 36 37 38 39 40 41 42 43 44 45 46 47 48 49 50

000
ASUS45 KSLC 011110
RWRUT

UTAH REGIONAL WEATHER ROUNDUP
NATIONAL WEATHER SERVICE SALT LAKE CITY UT
500 AM MDT SUN MAY 01 2016

UTZ001>011-023>025-011200-

NORTHERN UTAH

CITY           SKY/WX    TMP DP  RH WIND       PRES   REMARKS
BRIGHAM CITY   CLOUDY    48  23  36 E29G49    30.10S
HILL AFB       CLOUDY    45  23  42 E23G44    30.01R
LOGAN          CLOUDY    47  25  42 SE26G40   30.13R
OGDEN          CLOUDY    50  20  30 SE14G56   30.03S SQUALL
PROVO AIRPORT  MOCLDY    46  23  39 SW6       30.01S
SALT LAKE CITY CLOUDY    49  24  37 E15G24    30.03R
VERNAL         PTCLDY    40  23  50 NE14G22   30.11S WCI  32
WENDOVER       MOCLDY    46  34  61 N21G28    30.05R
HEBER CITY     CLOUDY    34  28  80 NE5       30.05S WCI  30

$$

UTZ012>022-026-027-011200-

SOUTHERN/CENTRAL UTAH

CITY           SKY/WX    TMP DP  RH WIND       PRES   REMARKS
BLANDING       CLOUDY    44  30  59 NE10      29.97S
BRYCE CANYON   CLEAR     30  24  78 N6        29.96R WCI  24
CEDAR CITY     CLEAR     35  33  92 E5        29.93R WCI  31
DELTA          CLEAR     43  28  56 NE13      29.96S
HANKSVILLE     CLOUDY    43  32  65 NE6       30.00R
MILFORD        CLEAR     40  36  86 N10       29.94R WCI  33
MOAB/CYNLANDS  PTCLDY    36  30  79 CALM      29.95R
PRICE          PTCLDY    38  22  52 NE14G24   30.04R WCI  30
ST GEORGE      CLOUDY    48  39  71 SE5       29.89R
KANAB          CLEAR     39  36  87 N7        29.94R WCI  34

$$

REGIONAL REPORTS     COLORADO/ARIZONA

CITY           SKY/WX    TMP DP  RH WIND       PRES   REMARKS
CRAIG, CO      CLOUDY    34  22  61 E14       30.12S WCI  25
GRAND JUNCTION CLOUDY    43  26  51 VRB7      29.97S
RIFLE          CLOUDY    36  26  67 NW3       30.04R
MONTROSE       CLEAR     36  28  73 CALM      30.00S
CORTEZ         CLOUDY    37  34  89 CALM      29.90F
PAGE, AZ       MOCLDY    50  34  54 N5        29.87R
GRAND CANYON   CLOUDY    41  34  76 NE12G22   29.88R
KINGMAN        CLOUDY    47  43  86 E3        29.84S
FLAGSTAFF      LGT SNOW  33  33 100 CALM      29.87R FOG

$$

REGIONAL REPORTS    NEVADA/IDAHO/WYOMING

CITY           SKY/WX    TMP DP  RH WIND       PRES   REMARKS
LAS VEGAS, NV  MOCLDY    55  48  77 S6        29.81R
ELY            PTCLDY    37  33  85 N13       30.01R WCI  29
ELKO           PTCLDY    43  35  73 NE9       30.05S
POCATELLO, ID  CLOUDY    37  33  85 NE6       30.16R WCI  32
BURLEY         MOCLDY    43  38  82 NE12      30.10R
EVANSTON, WY   CLOUDY    32  24  72 E21G31    30.16S WCI  20
ROCK SPRINGS   CLOUDY    33  26  75 E26G32    30.21R WCI  20

$$



USA.gov is the U.S. government's official web portal to all federal, state and local government web resources and services.